Home   Weather   Schlieren   Past weeks

Flag for Switzerland Past Weather in Schlieren, Zurich, Switzerland — Yesterday and Last 2 Weeks

Now
34 °F

Chilly.


Feels Like: 34 °F
Forecast: 27 / 62 °F
Wind: 2 mph from Southeast

Location: Zuerich-Fluntern

Current Time: Apr 29, 2017 at 5:48:35 am

Latest Report: Apr 29, 2017 at 4:00 am


Visibility: N/A

Pressure: 30.16 "Hg

Humidity: 96%

Dew Point: 33 °F

Location of SchlierenLocation

Past Weather in Schlieren — Graph

°F

Schlieren Temperature Yesterday

Maximum temperature yesterday: 40 °F (at 6:00 pm)
Minimum temperature yesterday: 32 °F (at 3:00 am)
Average temperature yesterday: 35 °F

High & Low Weather Summary for the Past Weeks

 TemperatureHumidityPressure
High66 °F (Apr 24, 5:00 pm)100% (Apr 26, 10:00 am)30.57 "Hg (Apr 26, 10:00 am)
Low28 °F (Apr 20, 6:00 am)26% (Apr 21, 6:00 pm)29.74 "Hg (Apr 26, 12:00 am)
Average43 °F73%30.14 "Hg
* Reported Apr 14 4:00 am — Apr 29 4:00 am, Schlieren, Weather by CustomWeather, © 2017

Note: Actual official high and low records may vary slightly from our data, if they occured in-between our weather recording intervals... More about our weather records

Advertising

Schlieren Weather History for the Previous 24 Hours

Scroll right to see more
 ConditionsComfort  
Time TempWeatherWind HumidityBarometerVisibility
4:00 am
Sat, Apr 29
34 °FChilly.2 mph96%30.16 "HgN/A
3:00 am35 °FChilly.3 mph95%30.15 "HgN/A
2:00 am35 °FChilly.2 mph95%30.16 "HgN/A
1:00 am36 °FChilly.2 mph89%30.15 "HgN/A
12:00 am36 °FChilly.2 mph90%30.15 "HgN/A
11:00 pm
Fri, Apr 28
36 °FChilly.3 mph91%30.14 "HgN/A
10:00 pm36 °FChilly.5 mph92%30.14 "HgN/A
9:00 pm36 °FChilly.6 mph90%30.13 "HgN/A
8:00 pm37 °FOvercast.8 mph93%30.10 "HgN/A
7:00 pm39 °FChilly.7 mph85%30.08 "HgN/A
6:00 pm40 °FQuite cool.7 mph82%30.07 "HgN/A
5:00 pm40 °FChilly.6 mph85%30.06 "HgN/A
4:00 pm38 °FChilly.6 mph91%30.06 "HgN/A
3:00 pm37 °FChilly.6 mph94%30.05 "HgN/A
2:00 pm36 °FOvercast.2 mph91%30.04 "HgN/A
1:00 pm39 °FChilly.1 mph89%30.01 "HgN/A
12:00 pm38 °FChilly.2 mph92%29.99 "HgN/A
11:00 am36 °FChilly.2 mph94%29.98 "HgN/A
10:00 am35 °FChilly.5 mph91%29.97 "HgN/A
9:00 am34 °FChilly.3 mph94%29.96 "HgN/A
8:00 am33 °FOvercast.3 mph98%29.95 "HgN/A
7:00 am33 °FChilly.2 mph96%29.94 "HgN/A
6:00 am33 °FChilly.1 mph98%29.93 "HgN/A
5:00 am32 °FChilly.1 mph99%29.94 "HgN/A
Weather by CustomWeather, © 2017

See weather overviewHow to use our weather pages